| time (UTC) | temp C | wind direction | speed KPH | gust KPH | rain 1hr cm | rain 24hr cm | rain mn cm | humidity % | barometer mb |
| 20260506012404 | 10 | 29 | 0.0 | 4.8 | 0.00 | 0.00 | 0.00 | 18 | 1011.6 |
| 20260506011905 | 11 | 54 | 0.0 | 11.3 | 0.00 | 0.00 | 0.00 | 18 | 1011.5 |
| 20260506011407 | 11 | 44 | 1.6 | 9.7 | 0.00 | 0.00 | 0.00 | 17 | 1011.3 |
| 20260506004904 | 12 | 48 | 1.6 | 8.0 | 0.00 | 0.00 | 0.00 | 15 | 1010.9 |
| 20260506004404 | 12 | 50 | 0.0 | 4.8 | 0.00 | 0.00 | 0.00 | 14 | 1011.0 |
| 20260506003904 | 12 | 5 | 0.0 | 14.5 | 0.00 | 0.00 | 0.00 | 16 | 1011.0 |
| 20260506003404 | 12 | 57 | 1.6 | 14.5 | 0.00 | 0.00 | 0.00 | 14 | 1011.0 |
| 20260506001905 | 11 | 32 | 3.2 | 16.1 | 0.00 | 0.00 | 0.00 | 15 | 1011.1 |
| 20260506001404 | 11 | 45 | 1.6 | 14.5 | 0.00 | 0.00 | 0.00 | 15 | 1011.1 |
| 20260506000904 | 11 | 45 | 1.6 | 14.5 | 0.00 | 0.00 | 0.00 | 13 | 1011.0 |
| 20260506000404 | 11 | 19 | 8.0 | 19.3 | 0.00 | 0.00 | 0.00 | 13 | 1010.9 |
| 20260505235903 | 11 | 32 | 6.4 | 14.5 | 0.00 | 0.00 | 0.00 | 12 | 1010.9 |
| 20260505235404 | 12 | 35 | 1.6 | 12.9 | 0.00 | 0.00 | 0.00 | 14 | 1010.9 |
| 20260505234904 | 12 | 50 | 1.6 | 8.0 | 0.00 | 0.00 | 0.00 | 13 | 1010.9 |
| 20260505234403 | 12 | 25 | 3.2 | 9.7 | 0.00 | 0.00 | 0.00 | 14 | 1010.9 |
| 20260505233904 | 12 | 15 | 3.2 | 14.5 | 0.00 | 0.00 | 0.00 | 13 | 1010.8 |
| 20260505233403 | 12 | 19 | 3.2 | 19.3 | 0.00 | 0.00 | 0.00 | 13 | 1010.8 |
| 20260505232404 | 13 | 38 | 8.0 | 20.9 | 0.00 | 0.00 | 0.00 | 10 | 1010.8 |
| 20260505231904 | 15 | 37 | 3.2 | 16.1 | 0.00 | 0.00 | 0.00 | 10 | 1010.7 |
| 20260505231404 | 15 | 243 | 1.6 | 22.5 | 0.00 | 0.00 | 0.00 | 10 | 1010.6 |
| 20260505230904 | 15 | 241 | 11.3 | 32.2 | 0.00 | 0.00 | 0.00 | 7 | 1010.6 |
| 20260505225904 | 15 | 249 | 9.7 | 16.1 | 0.00 | 0.00 | 0.00 | 7 | 1010.5 |
| 20260505225404 | 15 | 279 | 1.6 | 8.0 | 0.00 | 0.00 | 0.00 | 8 | 1010.4 |
| 20260505224904 | 15 | 272 | 11.3 | 32.2 | 0.00 | 0.00 | 0.00 | 6 | 1010.4 |
| 20260505223404 | 15 | 298 | 3.2 | 12.9 | 0.00 | 0.00 | 0.00 | 12 | 1010.3 |
| 20260505221404 | 14 | 202 | 3.2 | 27.4 | 0.00 | 0.00 | 0.00 | 9 | 1010.3 |
| 20260505220903 | 14 | 262 | 3.2 | 14.5 | 0.00 | 0.00 | 0.00 | 9 | 1010.3 |
| 20260505220404 | 14 | 356 | 14.5 | 33.8 | 0.00 | 0.00 | 0.00 | 11 | 1010.4 |
| 20260505215904 | 14 | 59 | 6.4 | 19.3 | 0.00 | 0.00 | 0.00 | 12 | 1010.1 |
| 20260505214904 | 14 | 48 | 4.8 | 11.3 | 0.00 | 0.00 | 0.00 | 10 | 1010.1 |
| 20260505214404 | 14 | 36 | 3.2 | 19.3 | 0.00 | 0.00 | 0.00 | 13 | 1010.2 |
| 20260505213904 | 14 | 248 | 1.6 | 19.3 | 0.00 | 0.00 | 0.00 | 15 | 1010.2 |
| 20260505212903 | 13 | 10 | 0.0 | 9.7 | 0.00 | 0.00 | 0.00 | 14 | 1010.3 |
| 20260505212404 | 13 | 273 | 3.2 | 12.9 | 0.00 | 0.00 | 0.00 | 19 | 1010.5 |
| 20260505211907 | 13 | 307 | 1.6 | 14.5 | 0.00 | 0.00 | 0.00 | 16 | 1010.3 |
| 20260505211404 | 12 | 9 | 1.6 | 11.3 | 0.00 | 0.00 | 0.00 | 14 | 1010.2 |
| 20260505210904 | 13 | 89 | 1.6 | 20.9 | 0.00 | 0.00 | 0.00 | 14 | 1010.3 |
| 20260505210405 | 13 | 358 | 0.0 | 4.8 | 0.00 | 0.00 | 0.00 | 16 | 1010.3 |
| 20260505205404 | 13 | 43 | 0.0 | 9.7 | 0.00 | 0.00 | 0.00 | 17 | 1010.2 |
| 20260505204905 | 13 | 42 | 6.4 | 25.7 | 0.00 | 0.00 | 0.00 | 15 | 1010.1 |
| 20260505204411 | 13 | 28 | 1.6 | 8.0 | 0.00 | 0.00 | 0.00 | 16 | 1010.2 |
| 20260505203904 | 13 | 51 | 4.8 | 16.1 | 0.00 | 0.00 | 0.00 | 15 | 1010.2 |
| 20260505203404 | 13 | 340 | 9.7 | 24.1 | 0.00 | 0.00 | 0.00 | 14 | 1010.3 |
| 20260505202904 | 13 | 238 | 1.6 | 8.0 | 0.00 | 0.00 | 0.00 | 17 | 1010.4 |
| 20260505202404 | 13 | 184 | 1.6 | 3.2 | 0.00 | 0.00 | 0.00 | 17 | 1010.3 |
| 20260505201904 | 13 | 336 | 0.0 | 16.1 | 0.00 | 0.00 | 0.00 | 13 | 1010.4 |
| 20260505201403 | 14 | 28 | 14.5 | 27.4 | 0.00 | 0.00 | 0.00 | 14 | 1010.3 |
| 20260505200405 | 13 | 238 | 3.2 | 19.3 | 0.00 | 0.00 | 0.00 | 17 | 1010.3 |
| 20260505195404 | 14 | 39 | 3.2 | 19.3 | 0.00 | 0.00 | 0.00 | 14 | 1010.3 |
| 20260505194404 | 14 | 242 | 1.6 | 14.5 | 0.00 | 0.00 | 0.00 | 14 | 1010.4 |
| 20260505193911 | 13 | 38 | 6.4 | 22.5 | 0.00 | 0.00 | 0.00 | 15 | 1010.4 |
| 20260505192904 | 13 | 281 | 0.0 | 25.7 | 0.00 | 0.00 | 0.00 | 16 | 1010.5 |
| 20260505191404 | 13 | 39 | 3.2 | 11.3 | 0.00 | 0.00 | 0.00 | 16 | 1010.6 |
| 20260505190405 | 13 | 33 | 3.2 | 14.5 | 0.00 | 0.00 | 0.00 | 18 | 1010.8 |
| 20260505185904 | 12 | 45 | 6.4 | 16.1 | 0.00 | 0.00 | 0.00 | 17 | 1010.7 |
| 20260505185404 | 13 | 56 | 8.0 | 14.5 | 0.00 | 0.00 | 0.00 | 16 | 1010.7 |
| 20260505184904 | 13 | 56 | 8.0 | 14.5 | 0.00 | 0.00 | 0.00 | 17 | 1010.8 |
| 20260505184404 | 13 | 47 | 8.0 | 19.3 | 0.00 | 0.00 | 0.00 | 17 | 1010.9 |
| 20260505183904 | 13 | 51 | 3.2 | 11.3 | 0.00 | 0.00 | 0.00 | 16 | 1011.0 |
| 20260505183404 | 13 | 33 | 4.8 | 19.3 | 0.00 | 0.00 | 0.00 | 16 | 1011.0 |
| 20260505182904 | 13 | 247 | 3.2 | 12.9 | 0.00 | 0.00 | 0.00 | 17 | 1011.1 |
| 20260505182404 | 13 | 31 | 8.0 | 19.3 | 0.00 | 0.00 | 0.00 | 17 | 1011.0 |
| 20260505181904 | 13 | 235 | 4.8 | 14.5 | 0.00 | 0.00 | 0.00 | 18 | 1011.0 |
| 20260505181404 | 13 | 226 | 1.6 | 11.3 | 0.00 | 0.00 | 0.00 | 18 | 1011.0 |
| 20260505180905 | 13 | 248 | 3.2 | 19.3 | 0.00 | 0.00 | 0.00 | 20 | 1011.1 |
| 20260505180404 | 13 | 31 | 4.8 | 16.1 | 0.00 | 0.00 | 0.00 | 18 | 1011.1 |
| 20260505175904 | 13 | 336 | 1.6 | 16.1 | 0.00 | 0.00 | 0.00 | 15 | 1011.1 |
| 20260505175404 | 13 | 351 | 1.6 | 9.7 | 0.00 | 0.00 | 0.00 | 18 | 1011.3 |
| 20260505174904 | 13 | 50 | 3.2 | 14.5 | 0.00 | 0.00 | 0.00 | 21 | 1011.3 |
| 20260505174404 | 13 | 52 | 1.6 | 8.0 | 0.00 | 0.00 | 0.00 | 20 | 1011.4 |
| 20260505173904 | 13 | 349 | 1.6 | 8.0 | 0.00 | 0.00 | 0.00 | 22 | 1011.5 |
| 20260505173403 | 12 | 229 | 0.0 | 12.9 | 0.00 | 0.00 | 0.00 | 20 | 1011.5 |
| 20260505172905 | 12 | 272 | 0.0 | 14.5 | 0.00 | 0.00 | 0.00 | 20 | 1011.5 |
| 20260505172404 | 12 | 44 | 1.6 | 14.5 | 0.00 | 0.00 | 0.00 | 21 | 1011.6 |
| 20260505171904 | 13 | 17 | 3.2 | 19.3 | 0.00 | 0.00 | 0.00 | 20 | 1011.4 |
| 20260505171404 | 13 | 5 | 1.6 | 8.0 | 0.00 | 0.00 | 0.00 | 21 | 1011.5 |
| 20260505170911 | 13 | 30 | 0.0 | 4.8 | 0.00 | 0.00 | 0.00 | 23 | 1011.5 |
| 20260505170404 | 13 | 63 | 3.2 | 16.1 | 0.00 | 0.00 | 0.00 | 22 | 1011.6 |
| 20260505165904 | 13 | 62 | 3.2 | 4.8 | 0.00 | 0.00 | 0.00 | 24 | 1011.5 |
| 20260505165404 | 13 | 304 | 0.0 | 3.2 | 0.00 | 0.00 | 0.00 | 25 | 1011.6 |
| 20260505164910 | 13 | 308 | 0.0 | 0.0 | 0.00 | 0.00 | 0.00 | 25 | 1011.6 |
| 20260505163904 | 12 | 307 | 1.6 | 9.7 | 0.00 | 0.00 | 0.00 | 25 | 1011.7 |
| 20260505163404 | 12 | 232 | 1.6 | 8.0 | 0.00 | 0.00 | 0.00 | 28 | 1011.7 |
| 20260505162404 | 12 | 103 | 0.0 | 4.8 | 0.00 | 0.00 | 0.00 | 31 | 1011.7 |
| 20260505161904 | 12 | 170 | 0.0 | 9.7 | 0.00 | 0.00 | 0.00 | 30 | 1011.8 |
| 20260505161404 | 12 | 121 | 0.0 | 4.8 | 0.00 | 0.00 | 0.00 | 32 | 1011.8 |
| 20260505160904 | 12 | 103 | 0.0 | 3.2 | 0.00 | 0.00 | 0.00 | 32 | 1011.8 |
| 20260505160404 | 12 | 150 | 0.0 | 3.2 | 0.00 | 0.00 | 0.00 | 32 | 1011.9 |
| 20260505152904 | 10 | 223 | 1.6 | 9.7 | 0.00 | 0.00 | 0.00 | 38 | 1012.2 |
| 20260505152404 | 10 | 215 | 0.0 | 0.0 | 0.00 | 0.00 | 0.00 | 38 | 1012.2 |
| 20260505151904 | 9 | 215 | 0.0 | 8.0 | 0.00 | 0.00 | 0.00 | 40 | 1012.4 |
| 20260505151404 | 9 | 218 | 3.2 | 9.7 | 0.00 | 0.00 | 0.00 | 42 | 1012.4 |
| 20260505150904 | 8 | 224 | 3.2 | 8.0 | 0.00 | 0.00 | 0.00 | 42 | 1012.4 |
| 20260505124407 | 6 | 252 | 0.0 | 0.0 | 0.00 | 0.00 | 0.00 | 53 | 1012.3 |
| 20260505123903 | 6 | 252 | 0.0 | 0.0 | 0.00 | 0.00 | 0.00 | 53 | 1012.2 |
| 20260505122904 | 6 | 252 | 0.0 | 0.0 | 0.00 | 0.00 | 0.00 | 52 | 1012.2 |
| 20260505121904 | 6 | 253 | 0.0 | 0.0 | 0.00 | 0.00 | 0.00 | 51 | 1012.2 |
| 20260505121404 | 6 | 252 | 0.0 | 0.0 | 0.00 | 0.00 | 0.00 | 50 | 1012.3 |
| 20260505120903 | 6 | 240 | 0.0 | 0.0 | 0.00 | 0.00 | 0.00 | 49 | 1012.4 |
| 20260505120405 | 6 | 240 | 0.0 | 0.0 | 0.00 | 0.00 | 0.00 | 49 | 1012.4 |
| 20260505115904 | 6 | 161 | 0.0 | 0.0 | 0.00 | 0.00 | 0.00 | 49 | 1012.4 |
| 20260505114904 | 6 | 122 | 0.0 | 4.8 | 0.00 | 0.00 | 0.00 | 49 | 1012.2 |
| 20260505114405 | 7 | 224 | 0.0 | 4.8 | 0.00 | 0.00 | 0.00 | 48 | 1012.3 |
| 20260505113405 | 7 | 248 | 0.0 | 0.0 | 0.00 | 0.00 | 0.00 | 50 | 1012.4 |
| 20260505112904 | 7 | 15 | 0.0 | 0.0 | 0.00 | 0.00 | 0.00 | 49 | 1012.2 |
| 20260505112404 | 7 | 15 | 0.0 | 0.0 | 0.00 | 0.00 | 0.00 | 49 | 1012.3 |
| 20260505111904 | 7 | 15 | 0.0 | 4.8 | 0.00 | 0.00 | 0.00 | 49 | 1012.3 |
| 20260505111404 | 7 | 277 | 0.0 | 0.0 | 0.00 | 0.00 | 0.00 | 49 | 1012.2 |
| 20260505110904 | 7 | 277 | 0.0 | 0.0 | 0.00 | 0.00 | 0.00 | 49 | 1012.2 |
| 20260505101903 | 5 | 5 | 0.0 | 0.0 | 0.00 | 0.00 | 0.00 | 63 | 1012.2 |
| 20260505101405 | 5 | 5 | 0.0 | 0.0 | 0.00 | 0.00 | 0.00 | 63 | 1012.2 |
| 20260505100904 | 5 | 5 | 0.0 | 0.0 | 0.00 | 0.00 | 0.00 | 64 | 1012.2 |
| 20260505100404 | 5 | 5 | 0.0 | 0.0 | 0.00 | 0.00 | 0.00 | 64 | 1012.2 |
| 20260505095904 | 5 | 5 | 0.0 | 0.0 | 0.00 | 0.00 | 0.00 | 63 | 1012.1 |
| 20260505095404 | 5 | 5 | 0.0 | 0.0 | 0.00 | 0.00 | 0.00 | 63 | 1012.0 |
| 20260505094904 | 5 | 5 | 0.0 | 0.0 | 0.00 | 0.00 | 0.00 | 64 | 1012.1 |
| 20260505094404 | 5 | 5 | 0.0 | 0.0 | 0.00 | 0.00 | 0.00 | 63 | 1012.0 |
| 20260505093904 | 5 | 5 | 0.0 | 0.0 | 0.00 | 0.00 | 0.00 | 64 | 1012.1 |
| 20260505093404 | 5 | 5 | 0.0 | 0.0 | 0.00 | 0.00 | 0.00 | 64 | 1012.0 |
| 20260505092904 | 5 | 5 | 0.0 | 0.0 | 0.00 | 0.00 | 0.00 | 64 | 1012.0 |
| 20260505092404 | 5 | 5 | 0.0 | 0.0 | 0.00 | 0.00 | 0.00 | 64 | 1011.9 |
| 20260505091904 | 5 | 5 | 0.0 | 0.0 | 0.00 | 0.00 | 0.00 | 64 | 1011.9 |
| 20260505091404 | 5 | 5 | 0.0 | 0.0 | 0.00 | 0.00 | 0.00 | 64 | 1012.0 |
| 20260505090904 | 5 | 5 | 0.0 | 0.0 | 0.00 | 0.00 | 0.00 | 64 | 1012.0 |
| 20260505090404 | 5 | 5 | 0.0 | 0.0 | 0.00 | 0.00 | 0.00 | 63 | 1011.9 |
| 20260505085904 | 5 | 5 | 0.0 | 0.0 | 0.00 | 0.00 | 0.00 | 63 | 1011.8 |
| 20260505085404 | 5 | 5 | 0.0 | 0.0 | 0.00 | 0.00 | 0.00 | 63 | 1011.8 |
| 20260505084903 | 5 | 5 | 0.0 | 0.0 | 0.00 | 0.00 | 0.00 | 63 | 1011.9 |
| 20260505084404 | 5 | 5 | 0.0 | 0.0 | 0.00 | 0.00 | 0.00 | 63 | 1011.9 |
| 20260505083904 | 5 | 5 | 0.0 | 0.0 | 0.00 | 0.00 | 0.00 | 64 | 1011.9 |
| 20260505082904 | 5 | 5 | 0.0 | 0.0 | 0.00 | 0.00 | 0.00 | 64 | 1011.9 |
| 20260505082404 | 5 | 5 | 0.0 | 0.0 | 0.00 | 0.00 | 0.00 | 64 | 1012.0 |
| 20260505081904 | 5 | 5 | 0.0 | 0.0 | 0.00 | 0.00 | 0.00 | 63 | 1012.2 |
| 20260505081404 | 5 | 5 | 0.0 | 0.0 | 0.00 | 0.00 | 0.00 | 63 | 1012.1 |
| 20260505080904 | 5 | 5 | 0.0 | 0.0 | 0.00 | 0.00 | 0.00 | 63 | 1012.1 |
| 20260505080404 | 5 | 5 | 0.0 | 0.0 | 0.00 | 0.00 | 0.00 | 63 | 1012.0 |
| 20260505075904 | 5 | 5 | 0.0 | 0.0 | 0.00 | 0.00 | 0.00 | 62 | 1012.0 |
| 20260505075404 | 5 | 5 | 0.0 | 0.0 | 0.00 | 0.00 | 0.00 | 62 | 1012.1 |
| 20260505074904 | 5 | 5 | 0.0 | 0.0 | 0.00 | 0.00 | 0.00 | 61 | 1012.1 |
| 20260505074404 | 5 | 5 | 0.0 | 0.0 | 0.00 | 0.00 | 0.00 | 60 | 1012.1 |
| 20260505073404 | 6 | 5 | 0.0 | 0.0 | 0.00 | 0.00 | 0.00 | 61 | 1012.0 |
| 20260505072904 | 6 | 5 | 0.0 | 0.0 | 0.00 | 0.00 | 0.00 | 61 | 1012.0 |
| 20260505072404 | 6 | 5 | 0.0 | 0.0 | 0.00 | 0.00 | 0.00 | 60 | 1012.0 |
| 20260505071904 | 6 | 5 | 0.0 | 0.0 | 0.00 | 0.00 | 0.00 | 59 | 1012.0 |
| 20260505071404 | 6 | 5 | 0.0 | 0.0 | 0.00 | 0.00 | 0.00 | 59 | 1012.1 |
| 20260505070404 | 6 | 5 | 0.0 | 0.0 | 0.00 | 0.00 | 0.00 | 58 | 1012.1 |
| 20260505065904 | 6 | 5 | 0.0 | 0.0 | 0.00 | 0.00 | 0.00 | 58 | 1012.0 |
| 20260505065404 | 6 | 5 | 0.0 | 0.0 | 0.00 | 0.00 | 0.00 | 58 | 1012.0 |
| 20260505064904 | 6 | 5 | 0.0 | 0.0 | 0.00 | 0.00 | 0.00 | 58 | 1012.0 |
| 20260505064404 | 6 | 5 | 0.0 | 0.0 | 0.00 | 0.00 | 0.00 | 58 | 1012.0 |
| 20260505062904 | 6 | 5 | 0.0 | 0.0 | 0.00 | 0.00 | 0.00 | 58 | 1012.0 |
| 20260505062404 | 6 | 5 | 0.0 | 0.0 | 0.00 | 0.00 | 0.00 | 57 | 1012.0 |
| 20260505061904 | 6 | 5 | 0.0 | 0.0 | 0.00 | 0.00 | 0.00 | 57 | 1012.0 |
| 20260505061404 | 6 | 5 | 0.0 | 0.0 | 0.00 | 0.00 | 0.00 | 58 | 1011.9 |
| 20260505060404 | 7 | 5 | 0.0 | 0.0 | 0.00 | 0.00 | 0.00 | 57 | 1012.0 |
| 20260505055904 | 6 | 5 | 0.0 | 0.0 | 0.00 | 0.00 | 0.00 | 56 | 1012.0 |
| 20260505055405 | 7 | 5 | 0.0 | 0.0 | 0.00 | 0.00 | 0.00 | 56 | 1012.0 |
| 20260505054904 | 7 | 5 | 0.0 | 0.0 | 0.00 | 0.00 | 0.00 | 55 | 1012.0 |
| 20260505054403 | 7 | 5 | 0.0 | 0.0 | 0.00 | 0.00 | 0.00 | 54 | 1011.9 |
| 20260505053903 | 7 | 5 | 0.0 | 0.0 | 0.00 | 0.00 | 0.00 | 53 | 1011.8 |
| 20260505052404 | 7 | 5 | 0.0 | 0.0 | 0.00 | 0.00 | 0.00 | 52 | 1011.6 |
| 20260505051904 | 7 | 5 | 0.0 | 0.0 | 0.00 | 0.00 | 0.00 | 52 | 1011.5 |
| 20260505051404 | 7 | 5 | 0.0 | 0.0 | 0.00 | 0.00 | 0.00 | 52 | 1011.5 |
| 20260505050904 | 7 | 5 | 0.0 | 0.0 | 0.00 | 0.00 | 0.00 | 52 | 1011.5 |
| 20260505050404 | 8 | 5 | 0.0 | 0.0 | 0.00 | 0.00 | 0.00 | 51 | 1011.5 |
| 20260505041418 | 8 | 5 | 0.0 | 0.0 | 0.00 | 0.00 | 0.00 | 48 | 1011.2 |
| 20260505040904 | 8 | 5 | 0.0 | 0.0 | 0.00 | 0.00 | 0.00 | 47 | 1011.2 |
| 20260505040404 | 8 | 5 | 0.0 | 0.0 | 0.00 | 0.00 | 0.00 | 47 | 1011.1 |
| 20260505034904 | 9 | 5 | 0.0 | 0.0 | 0.00 | 0.00 | 0.00 | 45 | 1010.9 |
| 20260505034403 | 9 | 5 | 0.0 | 0.0 | 0.00 | 0.00 | 0.00 | 45 | 1010.7 |
| 20260505033903 | 9 | 5 | 0.0 | 0.0 | 0.00 | 0.00 | 0.00 | 42 | 1010.6 |
| 20260505033404 | 10 | 5 | 0.0 | 0.0 | 0.00 | 0.00 | 0.00 | 43 | 1010.6 |
| 20260505032904 | 10 | 5 | 0.0 | 0.0 | 0.00 | 0.00 | 0.00 | 41 | 1010.4 |
| 20260505032404 | 10 | 5 | 0.0 | 0.0 | 0.00 | 0.00 | 0.00 | 41 | 1010.5 |
| 20260505031904 | 11 | 5 | 0.0 | 0.0 | 0.00 | 0.00 | 0.00 | 37 | 1010.4 |
| 20260505031404 | 11 | 5 | 0.0 | 0.0 | 0.00 | 0.00 | 0.00 | 36 | 1010.3 |
| 20260505030904 | 11 | 5 | 0.0 | 0.0 | 0.00 | 0.00 | 0.00 | 36 | 1010.2 |
| 20260505030407 | 12 | 5 | 0.0 | 0.0 | 0.00 | 0.00 | 0.00 | 35 | 1010.1 |
| 20260505025904 | 12 | 5 | 0.0 | 0.0 | 0.00 | 0.00 | 0.00 | 34 | 1010.1 |
| 20260505025404 | 12 | 5 | 0.0 | 0.0 | 0.00 | 0.00 | 0.00 | 33 | 1010.0 |
| 20260505024904 | 13 | 5 | 0.0 | 0.0 | 0.00 | 0.00 | 0.00 | 34 | 1010.0 |
| 20260505024404 | 13 | 5 | 0.0 | 0.0 | 0.00 | 0.00 | 0.00 | 32 | 1010.0 |
| 20260505023404 | 13 | 5 | 0.0 | 0.0 | 0.00 | 0.00 | 0.00 | 32 | 1010.0 |
| 20260505022905 | 13 | 5 | 0.0 | 0.0 | 0.00 | 0.00 | 0.00 | 30 | 1009.8 |
| 20260505022404 | 13 | 5 | 0.0 | 0.0 | 0.00 | 0.00 | 0.00 | 30 | 1009.8 |
| 20260505021904 | 14 | 5 | 0.0 | 0.0 | 0.00 | 0.00 | 0.00 | 29 | 1009.8 |
| 20260505021404 | 14 | 5 | 0.0 | 0.0 | 0.00 | 0.00 | 0.00 | 29 | 1009.8 |
| 20260505020904 | 14 | 5 | 0.0 | 0.0 | 0.00 | 0.00 | 0.00 | 29 | 1009.9 |
| 20260505020405 | 14 | 5 | 0.0 | 0.0 | 0.00 | 0.00 | 0.00 | 29 | 1009.9 |
| 20260505015903 | 14 | 5 | 0.0 | 0.0 | 0.00 | 0.00 | 0.00 | 27 | 1009.9 |
| 20260505015404 | 15 | 5 | 0.0 | 0.0 | 0.00 | 0.00 | 0.00 | 27 | 1009.8 |
| 20260505014904 | 15 | 5 | 0.0 | 0.0 | 0.00 | 0.00 | 0.00 | 27 | 1009.9 |
| 20260505014404 | 15 | 5 | 0.0 | 0.0 | 0.00 | 0.00 | 0.00 | 28 | 1009.8 |
| 20260505013904 | 15 | 5 | 0.0 | 8.0 | 0.00 | 0.00 | 0.00 | 26 | 1009.8 |
| 20260505013404 | 15 | 71 | 0.0 | 3.2 | 0.00 | 0.00 | 0.00 | 26 | 1009.8 |
| 20260505012904 | 15 | 222 | 1.6 | 4.8 | 0.00 | 0.00 | 0.00 | 26 | 1009.9 |